[[{"header":{"parameterUnit":"m.s-1","parameterCategory":1,"la1":30.2992,"la2":30.254,"lo1":-89.0895,"lo2":-89.0443,"dy":0.0025,"dx":0.0025,"nx":19,"ny":19,"refTime":"2026-04-24T09:00:00:Z","depth":0,"parameterNumber":2,"parameterNumberName":"U-component_of_WINDS"},"data":[0,0,0,-2.8407,-2.841,-2.8558,-2.8558,-2.8736,-2.8738,0,0,0,0,0,0,0,0,0,0,0,-2.8357,-2.8358,-2.8407,-2.841,-2.8557,-2.8558,-2.8736,-2.8738,0,0,0,0,0,0,0,0,0,0,0,-2.8356,-2.8358,-2.8359,-2.8411,-2.8557,-2.8558,-2.8735,-2.8628,0,0,0,0,0,0,0,0,0,0,-2.8487,-2.8434,-2.8357,-2.8359,-2.8412,-2.8557,-2.8558,-2.8623,-2.8635,-2.8665,0,-2.8689,0,-2.8716,-2.8749,-2.8749,0,0,0,-2.8415,-2.8424,-2.847,-2.8359,-2.8413,-2.8557,-2.8493,-2.863,-2.8643,-2.868,-2.8692,-2.8699,-2.8719,-2.875,-2.8751,-2.8907,-2.8907,0,0,-2.8407,-2.838,-2.8461,-2.8478,-2.8454,-2.8488,-2.8497,-2.8638,-2.8649,-2.8693,-2.8703,-2.8722,-2.8751,-2.8752,-2.8906,-2.8907,0,0,0,-2.8381,-2.8374,-2.8416,-2.847,-2.8498,-2.8492,-2.8503,-2.8643,-2.8659,-2.8705,-2.8724,-2.8752,-2.8754,-2.8906,-2.8906,-2.8903,0,0,0,-2.8376,-2.8358,-2.8413,-2.8397,-2.8495,-2.8572,-2.8504,-2.8649,-2.8666,-2.8723,-2.8752,-2.8756,-2.8905,-2.8906,-2.8902,-2.8905,0,0,0,-2.835,-2.8355,-2.8374,-2.8395,-2.8458,-2.857,-2.8595,-2.8654,-2.8677,-2.875,-2.8756,-2.8905,-2.8906,-2.8901,-2.8904,-2.8938,0,0,0,-2.8313,-2.8369,-2.8374,-2.8444,-2.8456,-2.8568,-2.8594,-2.8679,-2.874,-2.8753,-2.8905,-2.8906,-2.8901,-2.8903,-2.8936,-2.896,-2.8967,0,0,-2.8369,-2.8375,-2.8419,-2.8427,-2.853,-2.8547,-2.8651,-2.8733,-2.8766,-2.8858,-2.8862,-2.8902,-2.8904,-2.8937,-2.9022,-2.9027,0,0,0,-2.8427,-2.8457,-2.8491,-2.8548,-2.8613,-2.8669,-2.8739,-2.877,-2.8849,-2.8807,-2.8925,-2.8927,-2.8948,-2.896,-2.8965,-2.8984,-2.8911,-2.8911,-2.8911,-2.8464,-2.8503,-2.8577,-2.8634,-2.8689,-2.8761,-2.881,-2.8864,-2.8887,-2.8914,-2.8941,-2.8987,-2.9001,-2.9005,-2.9024,-2.8958,-2.8958,-2.8958,-2.8958,-2.8547,-2.8596,-2.8626,-2.8709,-2.875,-2.882,-2.8893,-2.8907,-2.8978,-2.897,-2.899,-2.8977,-2.901,-2.9029,-2.8958,-2.8958,-2.8958,-2.8958,-2.8958,-2.8574,-2.8605,-2.8642,-2.8729,-2.8792,-2.8849,-2.8916,-2.8951,-2.8985,-2.9005,-2.9037,-2.9037,-2.9041,-2.9018,-2.9018,-2.9019,-2.9019,-2.9019,-2.9019,-2.8587,-2.8629,-2.8681,-2.8755,-2.8797,-2.8857,-2.8931,-2.8973,-2.9029,-2.905,-2.905,-2.9069,-2.9006,-2.8988,-2.9022,-2.9021,-2.9021,-2.9021,-2.902,-2.8654,-2.8645,-2.8725,-2.8767,-2.8857,-2.8918,-2.8963,-2.9046,-2.9086,-2.9118,-2.9135,-2.9083,-2.9092,-2.9088,-2.9074,-2.9127,-2.9127,-2.9127,-2.9127,-2.8676,-2.8685,-2.8775,-2.8839,-2.8907,-2.8956,-2.9046,-2.9105,-2.9164,-2.9191,-2.919,-2.9174,-2.9169,-2.9181,-2.9175,-2.9162,-2.9237,-2.9237,-2.9237,-2.8719,-2.8736,-2.8805,-2.8863,-2.8936,-2.8999,-2.9084,-2.9158,-2.9223,-2.9242,-2.9214,-2.9209,-2.9184,-2.9175,-2.919,-2.9181,-2.9157,0,0]},{"header":{"parameterUnit":"m.s-1","parameterCategory":1,"la1":30.2992,"la2":30.254,"lo1":-89.0895,"lo2":-89.0443,"dy":0.0025,"dx":0.0025,"nx":19,"ny":19,"refTime":"2026-04-24T09:00:00:Z","depth":0,"parameterNumber":3,"parameterNumberName":"V-component_of_WINDS"},"data":[0,0,0,3.7253,3.7256,3.7388,3.7389,3.7549,3.755,0,0,0,0,0,0,0,0,0,0,0,3.7208,3.7209,3.7253,3.7256,3.7388,3.7389,3.7548,3.755,0,0,0,0,0,0,0,0,0,0,0,3.7208,3.7209,3.721,3.7256,3.7388,3.7389,3.7548,3.7451,0,0,0,0,0,0,0,0,0,0,3.7324,3.7278,3.7209,3.721,3.7257,3.7388,3.7389,3.7447,3.7457,3.7484,0,3.7508,0,3.7532,3.756,3.7561,0,0,0,3.7259,3.7269,3.731,3.721,3.7258,3.7388,3.733,3.7453,3.7465,3.7498,3.751,3.7516,3.7534,3.7561,3.7562,3.771,3.771,0,0,3.7252,3.7229,3.7301,3.7317,3.7297,3.7325,3.7334,3.746,3.7471,3.7511,3.752,3.7537,3.7562,3.7563,3.7709,3.771,0,0,0,3.7229,3.7223,3.7262,3.731,3.7335,3.7329,3.7339,3.7465,3.748,3.7522,3.7539,3.7563,3.7565,3.7709,3.7709,3.7714,0,0,0,3.7224,3.721,3.7258,3.7245,3.7333,3.7402,3.7341,3.7471,3.7486,3.7538,3.7563,3.7566,3.7708,3.7709,3.7712,3.7719,0,0,0,3.7201,3.7207,3.7225,3.7244,3.73,3.7401,3.7423,3.7475,3.7496,3.7561,3.7567,3.7708,3.7709,3.7711,3.7717,3.7752,0,0,0,3.7169,3.7225,3.7224,3.7293,3.7299,3.7403,3.7422,3.75,3.7556,3.7564,3.7708,3.7709,3.7711,3.7716,3.7751,3.7778,3.7787,0,0,3.7226,3.7231,3.7273,3.7277,3.7375,3.7384,3.7483,3.7555,3.7582,3.7665,3.7669,3.7713,3.7717,3.7752,3.7845,3.7852,0,0,0,3.7283,3.7313,3.7345,3.7398,3.7455,3.7506,3.7566,3.7593,3.7666,3.762,3.7735,3.7739,3.776,3.7774,3.778,3.78,3.7715,3.7715,3.7714,3.733,3.7363,3.7435,3.7485,3.7536,3.7598,3.7643,3.769,3.7707,3.7733,3.7758,3.7811,3.7826,3.7831,3.7852,3.7775,3.7775,3.7775,3.7775,3.7417,3.7465,3.7488,3.7567,3.7601,3.7667,3.773,3.774,3.7807,3.7794,3.7815,3.7798,3.7838,3.7857,3.7776,3.7776,3.7776,3.7775,3.7775,3.7451,3.748,3.7513,3.7595,3.7654,3.7702,3.7766,3.7794,3.7821,3.7841,3.7872,3.7872,3.7876,3.7854,3.7854,3.7854,3.7854,3.7855,3.7855,3.7474,3.7511,3.7562,3.763,3.7669,3.7723,3.7788,3.7827,3.7877,3.7893,3.7893,3.7908,3.7835,3.7817,3.7858,3.7857,3.7857,3.7857,3.7856,3.755,3.7538,3.7616,3.7655,3.7738,3.7796,3.7832,3.7909,3.7945,3.7976,3.7987,3.7928,3.7935,3.793,3.7915,3.7979,3.7979,3.7979,3.7979,3.758,3.7586,3.7674,3.7735,3.7798,3.7839,3.7927,3.7978,3.8029,3.8054,3.8049,3.8031,3.8025,3.8035,3.8028,3.8015,3.8102,3.8103,3.8103,3.7629,3.7643,3.7713,3.7764,3.7831,3.7888,3.7972,3.8041,3.8096,3.8108,3.8074,3.8069,3.8041,3.803,3.8041,3.8029,3.8005,0,0]}]]